| time (UTC) | temp C | wind direction | speed KPH | gust KPH | rain 1hr cm | rain 24hr cm | rain mn cm | humidity % | barometer mb |
| 20260831170118 | 28 | 262 | 1.6 | 8.0 | 0.00 | 0.00 | 0.00 | 78 | 1014.1 |
| 20260831165613 | 28 | 171 | 1.6 | 3.2 | 0.00 | 0.00 | 0.00 | 79 | 1014.1 |
| 20260831165110 | 28 | 249 | 3.2 | 3.2 | 0.00 | 0.00 | 0.00 | 78 | 1014.1 |
| 20260831164605 | 28 | 175 | 1.6 | 8.0 | 0.00 | 0.00 | 0.00 | 79 | 1013.9 |
| 20260831164101 | 28 | 210 | 3.2 | 3.2 | 0.00 | 0.00 | 0.00 | 80 | 1013.8 |
| 20260831163555 | 28 | 162 | 1.6 | 1.6 | 0.00 | 0.00 | 0.00 | 79 | 1013.9 |
| 20260831163051 | 28 | 236 | 1.6 | 3.2 | 0.00 | 0.00 | 0.00 | 79 | 1014.0 |
| 20260831162550 | 28 | 155 | 3.2 | 4.8 | 0.00 | 0.00 | 0.00 | 79 | 1014.1 |
| 20260831162048 | 28 | 208 | 1.6 | 8.0 | 0.00 | 0.00 | 0.00 | 81 | 1013.9 |
| 20260831161544 | 27 | 241 | 4.8 | 8.0 | 0.00 | 0.00 | 0.00 | 82 | 1013.9 |
| 20260831161041 | 27 | 172 | 3.2 | 8.0 | 0.00 | 0.00 | 0.00 | 83 | 1013.9 |
| 20260831160539 | 27 | 230 | 1.6 | 3.2 | 0.00 | 0.00 | 0.00 | 82 | 1013.8 |
| 20260831160036 | 27 | 261 | 3.2 | 3.2 | 0.00 | 0.00 | 0.00 | 83 | 1013.8 |
| 20260831155530 | 27 | 227 | 3.2 | 3.2 | 0.00 | 0.00 | 0.00 | 83 | 1014.0 |
| 20260831155025 | 27 | 212 | 3.2 | 9.7 | 0.00 | 0.00 | 0.00 | 83 | 1014.1 |
| 20260831154521 | 27 | 247 | 1.6 | 3.2 | 0.00 | 0.00 | 0.00 | 83 | 1013.9 |
| 20260831154020 | 27 | 237 | 1.6 | 4.8 | 0.00 | 0.00 | 0.00 | 84 | 1014.0 |
| 20260831153515 | 27 | 102 | 3.2 | 4.8 | 0.00 | 0.00 | 0.00 | 83 | 1013.6 |
| 20260831153012 | 27 | 200 | 6.4 | 9.7 | 0.00 | 0.00 | 0.00 | 83 | 1013.7 |
| 20260831152507 | 27 | 232 | 1.6 | 1.6 | 0.00 | 0.00 | 0.00 | 84 | 1013.5 |
| 20260831152002 | 26 | 166 | 1.6 | 8.0 | 0.00 | 0.00 | 0.00 | 85 | 1013.5 |
| 20260831151501 | 26 | 107 | 0.0 | 3.2 | 0.00 | 0.00 | 0.00 | 86 | 1013.6 |
| 20260831150956 | 26 | 222 | 3.2 | 4.8 | 0.00 | 0.00 | 0.00 | 86 | 1013.2 |
| 20260831150452 | 26 | 125 | 0.0 | 1.6 | 0.00 | 0.00 | 0.00 | 86 | 1013.4 |
| 20260831145951 | 26 | 231 | 1.6 | 8.0 | 0.00 | 0.00 | 0.00 | 87 | 1013.1 |
| 20260831145447 | 26 | 143 | 1.6 | 8.0 | 0.00 | 0.00 | 0.00 | 88 | 1013.2 |
| 20260831144943 | 25 | 167 | 0.0 | 3.2 | 0.00 | 0.00 | 0.00 | 88 | 1013.2 |
| 20260831144438 | 25 | 151 | 3.2 | 3.2 | 0.00 | 0.00 | 0.00 | 88 | 1013.1 |
| 20260831143933 | 25 | 179 | 4.8 | 8.0 | 0.00 | 0.00 | 0.00 | 88 | 1013.0 |
| 20260831143428 | 25 | 194 | 3.2 | 4.8 | 0.00 | 0.00 | 0.00 | 88 | 1013.0 |
| 20260831142924 | 25 | 169 | 8.0 | 8.0 | 0.00 | 0.00 | 0.00 | 89 | 1012.7 |
| 20260831142420 | 25 | 259 | 6.4 | 9.7 | 0.00 | 0.00 | 0.00 | 89 | 1013.1 |
| 20260831141914 | 25 | 219 | 4.8 | 4.8 | 0.00 | 0.00 | 0.00 | 89 | 1012.8 |
| 20260831141408 | 25 | 192 | 1.6 | 3.2 | 0.00 | 0.00 | 0.00 | 89 | 1012.8 |
| 20260831140903 | 24 | 228 | 1.6 | 4.8 | 0.00 | 0.00 | 0.00 | 90 | 1012.5 |
| 20260831140358 | 24 | 252 | 4.8 | 4.8 | 0.00 | 0.00 | 0.00 | 91 | 1012.7 |
| 20260831135857 | 24 | 268 | 3.2 | 4.8 | 0.00 | 0.00 | 0.00 | 91 | 1012.6 |
| 20260831135356 | 24 | 133 | 1.6 | 1.6 | 0.00 | 0.00 | 0.00 | 92 | 1012.5 |
| 20260831134852 | 23 | 169 | 3.2 | 4.8 | 0.00 | 0.00 | 0.00 | 92 | 1012.5 |
| 20260831134348 | 23 | 138 | 1.6 | 4.8 | 0.00 | 0.00 | 0.00 | 92 | 1012.4 |
| 20260831133847 | 23 | 221 | 4.8 | 8.0 | 0.00 | 0.00 | 0.00 | 93 | 1012.4 |
| 20260831133342 | 23 | 144 | 4.8 | 8.0 | 0.00 | 0.00 | 0.00 | 94 | 1012.4 |
| 20260831132837 | 23 | 226 | 3.2 | 4.8 | 0.00 | 0.00 | 0.00 | 95 | 1012.3 |
| 20260831132332 | 22 | 192 | 0.0 | 3.2 | 0.00 | 0.00 | 0.00 | 96 | 1012.3 |
| 20260831131832 | 22 | 241 | 4.8 | 4.8 | 0.00 | 0.00 | 0.00 | 97 | 1012.1 |
| 20260831131328 | 22 | 119 | 0.0 | 3.2 | 0.00 | 0.00 | 0.00 | 98 | 1012.3 |
| 20260831130823 | 22 | 217 | 1.6 | 1.6 | 0.00 | 0.00 | 0.00 | 99 | 1012.1 |
| 20260831130319 | 22 | 157 | 1.6 | 4.8 | 0.00 | 0.00 | 0.00 | 99 | 1011.8 |
| 20260831125818 | 22 | 232 | 3.2 | 4.8 | 0.00 | 0.00 | 0.00 | 99 | 1012.2 |
| 20260831125313 | 21 | 132 | 0.0 | 1.6 | 0.00 | 0.00 | 0.00 | 99 | 1012.0 |
| 20260831124813 | 21 | 180 | 0.0 | 1.6 | 0.00 | 0.00 | 0.00 | 99 | 1011.7 |
| 20260831124310 | 21 | 168 | 1.6 | 4.8 | 0.00 | 0.00 | 0.00 | 99 | 1012.1 |
| 20260831123809 | 21 | 157 | 0.0 | 4.8 | 0.00 | 0.00 | 0.00 | 99 | 1012.1 |
| 20260831123308 | 21 | 148 | 0.0 | 0.0 | 0.00 | 0.00 | 0.00 | 99 | 1012.0 |
| 20260831122803 | 21 | 166 | 0.0 | 1.6 | 0.00 | 0.00 | 0.00 | 99 | 1011.8 |
| 20260831122258 | 21 | 146 | 0.0 | 0.0 | 0.00 | 0.00 | 0.00 | 99 | 1012.0 |
| 20260831121753 | 21 | 181 | 1.6 | 3.2 | 0.00 | 0.00 | 0.00 | 99 | 1012.0 |
| 20260831121249 | 21 | 115 | 0.0 | 0.0 | 0.00 | 0.00 | 0.00 | 99 | 1012.0 |
| 20260831120744 | 21 | 159 | 0.0 | 0.0 | 0.00 | 0.00 | 0.00 | 99 | 1011.7 |
| 20260831120239 | 21 | 129 | 0.0 | 0.0 | 0.00 | 0.00 | 0.00 | 99 | 1011.6 |
| 20260831115734 | 21 | 132 | 0.0 | 0.0 | 0.00 | 0.00 | 0.00 | 99 | 1011.5 |
| 20260831115230 | 21 | 110 | 0.0 | 0.0 | 0.00 | 0.00 | 0.00 | 99 | 1011.5 |
| 20260831114729 | 21 | 124 | 0.0 | 0.0 | 0.00 | 0.00 | 0.00 | 99 | 1011.6 |
| 20260831114229 | 21 | 130 | 0.0 | 0.0 | 0.00 | 0.00 | 0.00 | 99 | 1011.5 |
| 20260831113725 | 21 | 121 | 0.0 | 0.0 | 0.00 | 0.00 | 0.00 | 99 | 1011.4 |
| 20260831113219 | 21 | 113 | 0.0 | 0.0 | 0.00 | 0.00 | 0.00 | 99 | 1011.2 |
| 20260831112718 | 21 | 111 | 0.0 | 0.0 | 0.00 | 0.00 | 0.00 | 99 | 1011.1 |
| 20260831112214 | 21 | 153 | 0.0 | 1.6 | 0.00 | 0.00 | 0.00 | 99 | 1011.1 |
| 20260831111709 | 21 | 114 | 0.0 | 0.0 | 0.00 | 0.00 | 0.00 | 99 | 1010.9 |
| 20260831111206 | 21 | 97 | 0.0 | 0.0 | 0.00 | 0.00 | 0.00 | 99 | 1011.0 |
| 20260831110701 | 21 | 109 | 0.0 | 0.0 | 0.00 | 0.00 | 0.00 | 99 | 1011.0 |
| 20260831110156 | 21 | 106 | 0.0 | 0.0 | 0.00 | 0.00 | 0.00 | 99 | 1011.0 |
| 20260831105655 | 21 | 108 | 0.0 | 0.0 | 0.00 | 0.00 | 0.00 | 99 | 1011.0 |
| 20260831105150 | 21 | 121 | 0.0 | 0.0 | 0.00 | 0.00 | 0.00 | 99 | 1010.9 |
| 20260831104645 | 21 | 115 | 0.0 | 0.0 | 0.00 | 0.00 | 0.00 | 99 | 1011.0 |
| 20260831104142 | 21 | 98 | 0.0 | 0.0 | 0.00 | 0.00 | 0.00 | 99 | 1011.0 |
| 20260831103637 | 21 | 123 | 0.0 | 1.6 | 0.00 | 0.00 | 0.00 | 99 | 1010.8 |
| 20260831103132 | 21 | 111 | 0.0 | 0.0 | 0.00 | 0.00 | 0.00 | 99 | 1010.9 |
| 20260831102632 | 21 | 114 | 0.0 | 0.0 | 0.00 | 0.00 | 0.00 | 99 | 1010.8 |
| 20260831102127 | 21 | 106 | 0.0 | 1.6 | 0.00 | 0.00 | 0.00 | 99 | 1011.0 |
| 20260831101627 | 21 | 105 | 0.0 | 0.0 | 0.00 | 0.00 | 0.00 | 99 | 1010.9 |
| 20260831101123 | 21 | 88 | 0.0 | 0.0 | 0.00 | 0.00 | 0.00 | 99 | 1011.0 |
| 20260831100619 | 21 | 100 | 0.0 | 0.0 | 0.00 | 0.00 | 0.00 | 98 | 1010.8 |
| 20260831100115 | 21 | 119 | 3.2 | 4.8 | 0.00 | 0.00 | 0.00 | 98 | 1011.0 |
| 20260831095613 | 21 | 113 | 0.0 | 0.0 | 0.00 | 0.00 | 0.00 | 98 | 1010.9 |
| 20260831095108 | 21 | 105 | 0.0 | 0.0 | 0.00 | 0.00 | 0.00 | 98 | 1011.1 |
| 20260831094603 | 21 | 106 | 1.6 | 1.6 | 0.00 | 0.00 | 0.00 | 98 | 1011.0 |
| 20260831094100 | 21 | 112 | 1.6 | 4.8 | 0.00 | 0.00 | 0.00 | 98 | 1010.9 |
| 20260831093554 | 21 | 109 | 0.0 | 1.6 | 0.00 | 0.00 | 0.00 | 98 | 1010.8 |
| 20260831093051 | 21 | 8 | 0.0 | 1.6 | 0.00 | 0.00 | 0.00 | 98 | 1010.9 |
| 20260831092547 | 21 | 115 | 0.0 | 1.6 | 0.00 | 0.00 | 0.00 | 97 | 1010.8 |
| 20260831092042 | 21 | 124 | 0.0 | 1.6 | 0.00 | 0.00 | 0.00 | 97 | 1010.8 |
| 20260831091542 | 21 | 105 | 1.6 | 3.2 | 0.00 | 0.00 | 0.00 | 97 | 1010.7 |
| 20260831091038 | 21 | 103 | 0.0 | 3.2 | 0.00 | 0.00 | 0.00 | 97 | 1011.1 |
| 20260831090533 | 21 | 107 | 1.6 | 1.6 | 0.00 | 0.00 | 0.00 | 97 | 1011.1 |
| 20260831090029 | 21 | 101 | 0.0 | 1.6 | 0.00 | 0.00 | 0.00 | 97 | 1010.9 |
| 20260831085524 | 21 | 134 | 1.6 | 4.8 | 0.00 | 0.00 | 0.00 | 97 | 1011.1 |
| 20260831085019 | 21 | 132 | 0.0 | 4.8 | 0.00 | 0.00 | 0.00 | 97 | 1011.2 |
| 20260831084515 | 21 | 137 | 1.6 | 1.6 | 0.00 | 0.00 | 0.00 | 97 | 1010.8 |
| 20260831084011 | 21 | 102 | 0.0 | 0.0 | 0.00 | 0.00 | 0.00 | 97 | 1010.8 |
| 20260831083506 | 21 | 114 | 0.0 | 3.2 | 0.00 | 0.00 | 0.00 | 96 | 1010.8 |
| 20260831083000 | 21 | 131 | 3.2 | 4.8 | 0.00 | 0.00 | 0.00 | 96 | 1010.8 |
| 20260831082500 | 21 | 131 | 0.0 | 1.6 | 0.00 | 0.00 | 0.00 | 96 | 1010.7 |
| 20260831081954 | 21 | 107 | 1.6 | 8.0 | 0.00 | 0.00 | 0.00 | 96 | 1010.6 |
| 20260831081450 | 21 | 99 | 0.0 | 0.0 | 0.00 | 0.00 | 0.00 | 96 | 1010.6 |
| 20260831080946 | 21 | 101 | 1.6 | 3.2 | 0.00 | 0.00 | 0.00 | 96 | 1010.7 |
| 20260831080441 | 21 | 174 | 1.6 | 3.2 | 0.00 | 0.00 | 0.00 | 96 | 1010.6 |
| 20260831075936 | 21 | 122 | 0.0 | 0.0 | 0.00 | 0.00 | 0.00 | 96 | 1010.6 |
| 20260831075432 | 21 | 110 | 0.0 | 4.8 | 0.00 | 0.00 | 0.00 | 95 | 1010.8 |
| 20260831074927 | 21 | 103 | 0.0 | 1.6 | 0.00 | 0.00 | 0.00 | 95 | 1010.8 |
| 20260831074426 | 21 | 118 | 1.6 | 1.6 | 0.00 | 0.00 | 0.00 | 95 | 1010.8 |
| 20260831073921 | 21 | 113 | 3.2 | 9.7 | 0.00 | 0.00 | 0.00 | 95 | 1010.8 |
| 20260831073421 | 21 | 125 | 1.6 | 4.8 | 0.00 | 0.00 | 0.00 | 95 | 1010.9 |
| 20260831072915 | 21 | 130 | 0.0 | 1.6 | 0.00 | 0.00 | 0.00 | 95 | 1010.8 |
| 20260831072411 | 21 | 126 | 0.0 | 1.6 | 0.00 | 0.00 | 0.00 | 95 | 1010.8 |
| 20260831071908 | 21 | 100 | 0.0 | 1.6 | 0.00 | 0.00 | 0.00 | 95 | 1011.1 |
| 20260831071406 | 21 | 105 | 0.0 | 1.6 | 0.00 | 0.00 | 0.00 | 94 | 1010.9 |
| 20260831070901 | 21 | 117 | 0.0 | 3.2 | 0.00 | 0.00 | 0.00 | 94 | 1011.0 |
| 20260831070400 | 21 | 125 | 1.6 | 3.2 | 0.00 | 0.00 | 0.00 | 94 | 1010.9 |
| 20260831065859 | 21 | 92 | 0.0 | 1.6 | 0.00 | 0.00 | 0.00 | 94 | 1011.0 |
| 20260831065357 | 21 | 81 | 0.0 | 1.6 | 0.00 | 0.00 | 0.00 | 94 | 1011.0 |
| 20260831064853 | 22 | 100 | 0.0 | 3.2 | 0.00 | 0.00 | 0.00 | 94 | 1011.2 |
| 20260831064348 | 22 | 103 | 0.0 | 0.0 | 0.00 | 0.00 | 0.00 | 93 | 1011.4 |
| 20260831063843 | 22 | 113 | 1.6 | 1.6 | 0.00 | 0.00 | 0.00 | 93 | 1011.3 |
| 20260831063339 | 22 | 110 | 1.6 | 3.2 | 0.00 | 0.00 | 0.00 | 93 | 1011.3 |
| 20260831062838 | 22 | 106 | 1.6 | 3.2 | 0.00 | 0.00 | 0.00 | 93 | 1011.7 |
| 20260831062333 | 22 | 111 | 0.0 | 1.6 | 0.00 | 0.00 | 0.00 | 93 | 1011.5 |
| 20260831061832 | 22 | 170 | 1.6 | 1.6 | 0.00 | 0.00 | 0.00 | 93 | 1011.6 |
| 20260831061331 | 22 | 144 | 0.0 | 0.0 | 0.00 | 0.00 | 0.00 | 93 | 1011.5 |
| 20260831060828 | 22 | 63 | 0.0 | 0.0 | 0.00 | 0.00 | 0.00 | 92 | 1011.3 |
| 20260831060322 | 22 | 58 | 0.0 | 4.8 | 0.00 | 0.00 | 0.00 | 92 | 1011.5 |
| 20260831055821 | 22 | 79 | 1.6 | 3.2 | 0.00 | 0.00 | 0.00 | 92 | 1011.7 |
| 20260831055317 | 22 | 122 | 1.6 | 1.6 | 0.00 | 0.00 | 0.00 | 92 | 1011.7 |
| 20260831054812 | 22 | 89 | 0.0 | 1.6 | 0.00 | 0.00 | 0.00 | 92 | 1011.8 |
| 20260831054307 | 22 | 117 | 1.6 | 1.6 | 0.00 | 0.00 | 0.00 | 92 | 1012.0 |
| 20260831053806 | 22 | 112 | 1.6 | 1.6 | 0.00 | 0.00 | 0.00 | 91 | 1012.1 |
| 20260831053305 | 22 | 100 | 0.0 | 4.8 | 0.00 | 0.00 | 0.00 | 91 | 1012.2 |
| 20260831052759 | 22 | 111 | 0.0 | 9.7 | 0.00 | 0.00 | 0.00 | 91 | 1012.3 |
| 20260831052258 | 22 | 91 | 1.6 | 4.8 | 0.00 | 0.00 | 0.00 | 91 | 1012.2 |
| 20260831051757 | 22 | 112 | 3.2 | 4.8 | 0.00 | 0.00 | 0.00 | 90 | 1012.4 |
| 20260831051256 | 22 | 125 | 0.0 | 1.6 | 0.00 | 0.00 | 0.00 | 90 | 1012.5 |
| 20260831050751 | 22 | 124 | 4.8 | 8.0 | 0.00 | 0.00 | 0.00 | 90 | 1012.4 |
| 20260831050250 | 22 | 165 | 0.0 | 3.2 | 0.00 | 0.00 | 0.00 | 90 | 1012.5 |
| 20260831045744 | 22 | 152 | 3.2 | 4.8 | 0.00 | 0.00 | 0.00 | 90 | 1012.5 |
| 20260831045239 | 22 | 114 | 0.0 | 3.2 | 0.00 | 0.00 | 0.00 | 89 | 1012.4 |
| 20260831044733 | 22 | 133 | 4.8 | 4.8 | 0.00 | 0.00 | 0.00 | 89 | 1012.5 |
| 20260831044229 | 22 | 127 | 0.0 | 8.0 | 0.00 | 0.00 | 0.00 | 89 | 1012.2 |
| 20260831043724 | 22 | 83 | 3.2 | 4.8 | 0.00 | 0.00 | 0.00 | 89 | 1012.5 |
| 20260831043219 | 22 | 118 | 0.0 | 1.6 | 0.00 | 0.00 | 0.00 | 89 | 1012.3 |
| 20260831042718 | 23 | 124 | 1.6 | 4.8 | 0.00 | 0.00 | 0.00 | 88 | 1012.6 |
| 20260831042213 | 23 | 121 | 1.6 | 4.8 | 0.00 | 0.00 | 0.00 | 88 | 1012.6 |
| 20260831041708 | 23 | 113 | 1.6 | 3.2 | 0.00 | 0.00 | 0.00 | 88 | 1012.4 |
| 20260831041203 | 23 | 128 | 4.8 | 9.7 | 0.00 | 0.00 | 0.00 | 88 | 1012.5 |
| 20260831040657 | 23 | 137 | 4.8 | 12.9 | 0.00 | 0.00 | 0.00 | 88 | 1012.5 |
| 20260831040156 | 23 | 139 | 1.6 | 4.8 | 0.00 | 0.00 | 0.00 | 88 | 1012.3 |
| 20260831035655 | 23 | 106 | 3.2 | 4.8 | 0.00 | 0.00 | 0.00 | 88 | 1012.3 |
| 20260831035150 | 23 | 82 | 1.6 | 8.0 | 0.00 | 0.00 | 0.00 | 88 | 1012.3 |
| 20260831034648 | 23 | 100 | 3.2 | 8.0 | 0.00 | 0.00 | 0.00 | 88 | 1012.6 |
| 20260831034144 | 23 | 116 | 1.6 | 4.8 | 0.00 | 0.00 | 0.00 | 87 | 1012.4 |
| 20260831033640 | 23 | 160 | 4.8 | 8.0 | 0.00 | 0.00 | 0.00 | 87 | 1012.6 |
| 20260831033134 | 23 | 116 | 0.0 | 8.0 | 0.00 | 0.00 | 0.00 | 87 | 1012.3 |
| 20260831032634 | 23 | 185 | 1.6 | 3.2 | 0.00 | 0.00 | 0.00 | 87 | 1012.6 |
| 20260831032130 | 23 | 101 | 4.8 | 14.5 | 0.00 | 0.00 | 0.00 | 87 | 1012.6 |
| 20260831031630 | 23 | 111 | 1.6 | 4.8 | 0.00 | 0.00 | 0.00 | 86 | 1012.3 |
| 20260831031130 | 23 | 163 | 1.6 | 3.2 | 0.00 | 0.00 | 0.00 | 86 | 1012.3 |
| 20260831030628 | 23 | 111 | 3.2 | 4.8 | 0.00 | 0.00 | 0.00 | 86 | 1012.4 |
| 20260831030128 | 23 | 75 | 4.8 | 8.0 | 0.00 | 0.00 | 0.00 | 85 | 1012.4 |
| 20260831025626 | 23 | 121 | 3.2 | 8.0 | 0.00 | 0.00 | 0.00 | 85 | 1012.5 |
| 20260831025121 | 23 | 123 | 1.6 | 8.0 | 0.00 | 0.00 | 0.00 | 85 | 1012.5 |
| 20260831024618 | 24 | 92 | 1.6 | 8.0 | 0.00 | 0.00 | 0.00 | 84 | 1012.3 |
| 20260831024116 | 24 | 70 | 1.6 | 4.8 | 0.00 | 0.00 | 0.00 | 84 | 1012.5 |
| 20260831023615 | 24 | 63 | 3.2 | 4.8 | 0.00 | 0.00 | 0.00 | 84 | 1012.4 |
| 20260831023114 | 24 | 143 | 4.8 | 11.3 | 0.00 | 0.00 | 0.00 | 83 | 1012.5 |
| 20260831022609 | 24 | 78 | 0.0 | 8.0 | 0.00 | 0.00 | 0.00 | 83 | 1012.4 |
| 20260831022104 | 24 | 153 | 6.4 | 11.3 | 0.00 | 0.00 | 0.00 | 83 | 1012.5 |
| 20260831021603 | 25 | 133 | 4.8 | 8.0 | 0.00 | 0.00 | 0.00 | 82 | 1012.4 |
| 20260831021059 | 25 | 120 | 1.6 | 11.3 | 0.00 | 0.00 | 0.00 | 82 | 1012.4 |
| 20260831020554 | 25 | 158 | 0.0 | 4.8 | 0.00 | 0.00 | 0.00 | 81 | 1012.5 |
| 20260831020049 | 25 | 137 | 3.2 | 9.7 | 0.00 | 0.00 | 0.00 | 80 | 1012.5 |
| 20260831015545 | 25 | 171 | 3.2 | 9.7 | 0.00 | 0.00 | 0.00 | 79 | 1012.6 |
| 20260831015039 | 25 | 104 | 3.2 | 9.7 | 0.00 | 0.00 | 0.00 | 79 | 1012.7 |
| 20260831014534 | 25 | 169 | 6.4 | 11.3 | 0.00 | 0.00 | 0.00 | 78 | 1012.5 |
| 20260831014030 | 25 | 99 | 0.0 | 8.0 | 0.00 | 0.00 | 0.00 | 78 | 1012.2 |
| 20260831013525 | 26 | 137 | 3.2 | 11.3 | 0.00 | 0.00 | 0.00 | 76 | 1012.5 |
| 20260831013020 | 26 | 110 | 1.6 | 8.0 | 0.00 | 0.00 | 0.00 | 75 | 1012.2 |
| 20260831012514 | 26 | 114 | 3.2 | 12.9 | 0.00 | 0.00 | 0.00 | 74 | 1012.2 |
| 20260831012015 | 26 | 108 | 1.6 | 8.0 | 0.00 | 0.00 | 0.00 | 74 | 1011.8 |
| 20260831011509 | 26 | 116 | 4.8 | 4.8 | 0.00 | 0.00 | 0.00 | 74 | 1012.2 |
| 20260831011005 | 26 | 107 | 4.8 | 16.1 | 0.00 | 0.00 | 0.00 | 73 | 1012.2 |
| 20260831010504 | 27 | 92 | 8.0 | 14.5 | 0.00 | 0.00 | 0.00 | 73 | 1012.1 |
| 20260831010001 | 27 | 136 | 0.0 | 11.3 | 0.00 | 0.00 | 0.00 | 74 | 1012.0 |
| 20260831005456 | 27 | 102 | 1.6 | 3.2 | 0.00 | 0.00 | 0.00 | 73 | 1012.0 |
| 20260831004955 | 27 | 112 | 3.2 | 3.2 | 0.00 | 0.00 | 0.00 | 73 | 1011.8 |
| 20260831004452 | 27 | 128 | 3.2 | 8.0 | 0.00 | 0.00 | 0.00 | 72 | 1011.7 |
| 20260831003948 | 27 | 148 | 1.6 | 9.7 | 0.00 | 0.00 | 0.00 | 72 | 1011.8 |
| 20260831003444 | 27 | 126 | 0.0 | 3.2 | 0.00 | 0.00 | 0.00 | 72 | 1011.7 |
| 20260831002943 | 27 | 124 | 0.0 | 3.2 | 0.00 | 0.00 | 0.00 | 72 | 1011.6 |
| 20260831002442 | 28 | 113 | 1.6 | 8.0 | 0.00 | 0.00 | 0.00 | 72 | 1011.5 |
| 20260831001938 | 28 | 87 | 0.0 | 3.2 | 0.00 | 0.00 | 0.00 | 72 | 1011.3 |
| 20260831001433 | 28 | 114 | 4.8 | 4.8 | 0.00 | 0.00 | 0.00 | 71 | 1011.3 |
| 20260831000930 | 28 | 118 | 1.6 | 12.9 | 0.00 | 0.00 | 0.00 | 71 | 1011.4 |
| 20260831000426 | 28 | 112 | 3.2 | 11.3 | 0.00 | 0.00 | 0.00 | 71 | 1011.4 |
| 20260830235923 | 28 | 134 | 1.6 | 9.7 | 0.00 | 0.00 | 0.00 | 71 | 1011.2 |
| 20260830235419 | 28 | 104 | 1.6 | 3.2 | 0.00 | 0.00 | 0.00 | 71 | 1011.4 |
| 20260830234914 | 28 | 116 | 1.6 | 4.8 | 0.00 | 0.00 | 0.00 | 71 | 1011.6 |
| 20260830234409 | 28 | 148 | 3.2 | 4.8 | 0.00 | 0.00 | 0.00 | 72 | 1011.4 |
| 20260830233905 | 29 | 105 | 4.8 | 8.0 | 0.00 | 0.00 | 0.00 | 72 | 1011.4 |
| 20260830233400 | 29 | 147 | 3.2 | 11.3 | 0.00 | 0.00 | 0.00 | 72 | 1011.5 |
| 20260830232855 | 28 | 107 | 3.2 | 9.7 | 0.00 | 0.00 | 0.00 | 74 | 1011.3 |
| 20260830232351 | 28 | 180 | 6.4 | 9.7 | 0.00 | 0.00 | 0.00 | 77 | 1011.4 |
| 20260830231848 | 28 | 109 | 0.0 | 8.0 | 0.00 | 0.00 | 0.00 | 77 | 1011.4 |
| 20260830231343 | 28 | 108 | 0.0 | 9.7 | 0.00 | 0.00 | 0.00 | 77 | 1011.3 |
| 20260830230842 | 29 | 342 | 6.4 | 9.7 | 0.00 | 0.00 | 0.00 | 75 | 1011.5 |
| 20260830230337 | 29 | 205 | 3.2 | 8.0 | 0.00 | 0.00 | 0.00 | 75 | 1011.6 |
| 20260830225831 | 29 | 100 | 6.4 | 12.9 | 0.00 | 0.00 | 0.00 | 76 | 1011.5 |
| 20260830225326 | 28 | 327 | 0.0 | 1.6 | 0.00 | 0.00 | 0.00 | 76 | 1011.4 |
| 20260830224821 | 28 | 114 | 1.6 | 8.0 | 0.00 | 0.00 | 0.00 | 76 | 1011.4 |
| 20260830224315 | 28 | 303 | 1.6 | 4.8 | 0.00 | 0.00 | 0.00 | 77 | 1011.2 |
| 20260830223812 | 29 | 248 | 0.0 | 4.8 | 0.00 | 0.00 | 0.00 | 75 | 1011.1 |
| 20260830223308 | 29 | 30 | 3.2 | 9.7 | 0.00 | 0.00 | 0.00 | 76 | 1011.2 |
| 20260830222802 | 29 | 41 | 1.6 | 1.6 | 0.00 | 0.00 | 0.00 | 74 | 1011.1 |
| 20260830222257 | 28 | 171 | 0.0 | 8.0 | 0.00 | 0.00 | 0.00 | 76 | 1011.2 |
| 20260830221752 | 28 | 6 | 6.4 | 8.0 | 0.00 | 0.00 | 0.00 | 76 | 1011.1 |
| 20260830221249 | 28 | 103 | 6.4 | 11.3 | 0.00 | 0.00 | 0.00 | 77 | 1011.0 |
| 20260830220743 | 28 | 63 | 0.0 | 9.7 | 0.00 | 0.00 | 0.00 | 77 | 1011.2 |
| 20260830220243 | 28 | 6 | 6.4 | 12.9 | 0.00 | 0.00 | 0.00 | 76 | 1011.3 |
| 20260830215741 | 28 | 118 | 1.6 | 8.0 | 0.00 | 0.00 | 0.00 | 76 | 1011.2 |
| 20260830215236 | 28 | 34 | 8.0 | 9.7 | 0.00 | 0.00 | 0.00 | 74 | 1011.3 |
| 20260830214731 | 28 | 92 | 1.6 | 4.8 | 0.00 | 0.00 | 0.00 | 76 | 1011.0 |
| 20260830214226 | 28 | 160 | 3.2 | 4.8 | 0.00 | 0.00 | 0.00 | 76 | 1011.2 |
| 20260830213725 | 28 | 90 | 4.8 | 8.0 | 0.00 | 0.00 | 0.00 | 74 | 1011.4 |
| 20260830213220 | 30 | 158 | 1.6 | 3.2 | 0.00 | 0.00 | 0.00 | 73 | 1011.4 |
| 20260830212716 | 30 | 113 | 1.6 | 4.8 | 0.00 | 0.00 | 0.00 | 72 | 1011.6 |
| 20260830212211 | 29 | 51 | 4.8 | 8.0 | 0.00 | 0.00 | 0.00 | 73 | 1011.7 |
| 20260830211706 | 29 | 355 | 4.8 | 9.7 | 0.00 | 0.00 | 0.00 | 73 | 1011.6 |
| 20260830211205 | 28 | 172 | 0.0 | 12.9 | 0.00 | 0.00 | 0.00 | 74 | 1011.7 |
| 20260830210701 | 28 | 136 | 1.6 | 11.3 | 0.00 | 0.00 | 0.00 | 73 | 1011.6 |
| 20260830210200 | 29 | 184 | 1.6 | 9.7 | 0.00 | 0.00 | 0.00 | 72 | 1011.6 |
| 20260830205657 | 28 | 139 | 1.6 | 9.7 | 0.00 | 0.00 | 0.00 | 73 | 1011.7 |
| 20260830205152 | 28 | 161 | 1.6 | 3.2 | 0.00 | 0.00 | 0.00 | 75 | 1011.7 |
| 20260830204647 | 28 | 102 | 4.8 | 8.0 | 0.00 | 0.00 | 0.00 | 75 | 1011.8 |
| 20260830204145 | 28 | 109 | 3.2 | 8.0 | 0.00 | 0.00 | 0.00 | 74 | 1012.1 |
| 20260830203642 | 29 | 7 | 1.6 | 4.8 | 0.00 | 0.00 | 0.00 | 72 | 1012.0 |
| 20260830203137 | 28 | 103 | 3.2 | 4.8 | 0.00 | 0.00 | 0.00 | 73 | 1012.0 |
| 20260830202636 | 28 | 129 | 3.2 | 9.7 | 0.00 | 0.00 | 0.00 | 73 | 1012.1 |
| 20260830202132 | 29 | 132 | 4.8 | 11.3 | 0.00 | 0.00 | 0.00 | 73 | 1011.8 |
| 20260830201631 | 28 | 257 | 3.2 | 8.0 | 0.00 | 0.00 | 0.00 | 74 | 1012.0 |
| 20260830201127 | 28 | 214 | 3.2 | 17.7 | 0.00 | 0.00 | 0.00 | 77 | 1011.8 |
| 20260830200622 | 28 | 143 | 6.4 | 9.7 | 0.00 | 0.00 | 0.00 | 74 | 1011.8 |
| 20260830200121 | 28 | 319 | 1.6 | 8.0 | 0.00 | 0.00 | 0.00 | 74 | 1011.8 |
| 20260830195617 | 28 | 30 | 3.2 | 11.3 | 0.00 | 0.00 | 0.00 | 74 | 1011.7 |
| 20260830195114 | 28 | 31 | 4.8 | 14.5 | 0.00 | 0.00 | 0.00 | 74 | 1012.0 |
| 20260830194609 | 28 | 318 | 6.4 | 12.9 | 0.00 | 0.00 | 0.00 | 74 | 1012.0 |
| 20260830194108 | 28 | 153 | 1.6 | 14.5 | 0.00 | 0.00 | 0.00 | 74 | 1011.5 |
| 20260830193603 | 28 | 111 | 3.2 | 12.9 | 0.00 | 0.00 | 0.00 | 75 | 1011.8 |
| 20260830193058 | 28 | 110 | 3.2 | 11.3 | 0.00 | 0.00 | 0.00 | 75 | 1011.8 |
| 20260830192553 | 27 | 124 | 8.0 | 11.3 | 0.00 | 0.00 | 0.00 | 75 | 1011.8 |
| 20260830192053 | 28 | 109 | 1.6 | 11.3 | 0.00 | 0.00 | 0.00 | 76 | 1012.1 |
| 20260830191548 | 28 | 127 | 1.6 | 8.0 | 0.00 | 0.00 | 0.00 | 75 | 1012.2 |
| 20260830191038 | 27 | 143 | 1.6 | 3.2 | 0.00 | 0.00 | 0.00 | 77 | 1012.0 |
| 20260830190533 | 27 | 44 | 12.9 | 17.7 | 0.00 | 0.00 | 0.00 | 77 | 1012.3 |
| 20260830190028 | 27 | 176 | 0.0 | 8.0 | 0.00 | 0.00 | 0.00 | 78 | 1012.2 |
| 20260830185522 | 27 | 51 | 9.7 | 12.9 | 0.00 | 0.00 | 0.00 | 78 | 1012.5 |
| 20260830185018 | 26 | 129 | 3.2 | 8.0 | 0.00 | 0.00 | 0.00 | 80 | 1012.6 |
| 20260830184516 | 26 | 68 | 0.0 | 9.7 | 0.00 | 0.00 | 0.00 | 81 | 1012.7 |
| 20260830184005 | 26 | 153 | 4.8 | 20.9 | 0.00 | 0.00 | 0.00 | 81 | 1012.7 |
| 20260830183500 | 26 | 28 | 4.8 | 17.7 | 0.00 | 0.00 | 0.00 | 81 | 1012.7 |
| 20260830182955 | 26 | 104 | 8.0 | 12.9 | 0.00 | 0.00 | 0.00 | 81 | 1012.7 |
| 20260830182450 | 26 | 205 | 1.6 | 8.0 | 0.00 | 0.00 | 0.00 | 82 | 1012.8 |
| 20260830181946 | 26 | 115 | 4.8 | 12.9 | 0.00 | 0.00 | 0.00 | 82 | 1012.7 |
| 20260830181443 | 25 | 353 | 0.0 | 11.3 | 0.00 | 0.00 | 0.00 | 83 | 1012.9 |
| 20260830180937 | 25 | 104 | 4.8 | 14.5 | 0.00 | 0.00 | 0.00 | 83 | 1013.0 |
| 20260830180436 | 25 | 92 | 1.6 | 8.0 | 0.00 | 0.00 | 0.00 | 83 | 1013.0 |
| 20260830175935 | 25 | 117 | 3.2 | 12.9 | 0.00 | 0.00 | 0.00 | 83 | 1013.1 |
| 20260830175434 | 25 | 214 | 4.8 | 9.7 | 0.00 | 0.00 | 0.00 | 83 | 1013.1 |
| 20260830174925 | 25 | 155 | 4.8 | 4.8 | 0.00 | 0.00 | 0.00 | 83 | 1013.1 |
| 20260830174420 | 25 | 157 | 3.2 | 9.7 | 0.00 | 0.00 | 0.00 | 83 | 1013.3 |
| 20260830173915 | 25 | 101 | 12.9 | 14.5 | 0.00 | 0.00 | 0.00 | 83 | 1013.5 |
| 20260830173411 | 25 | 30 | 1.6 | 4.8 | 0.00 | 0.00 | 0.00 | 84 | 1013.5 |
| 20260830172906 | 25 | 158 | 3.2 | 8.0 | 0.00 | 0.00 | 0.00 | 84 | 1013.4 |
| 20260830172403 | 25 | 163 | 0.0 | 4.8 | 0.00 | 0.00 | 0.00 | 84 | 1013.4 |
| 20260830171858 | 25 | 135 | 3.2 | 8.0 | 0.00 | 0.00 | 0.00 | 84 | 1013.3 |
| 20260830171354 | 25 | 31 | 1.6 | 8.0 | 0.00 | 0.00 | 0.00 | 84 | 1013.1 |
| 20260830170848 | 25 | 252 | 1.6 | 3.2 | 0.00 | 0.00 | 0.00 | 84 | 1013.2 |